RH
21 20 19 21 20 19 19 25 39 30 22 18 16 16 17 20 20 17 18 19 22 26 34 39 62 77 80 85 84 85 90 93 97 96 95 95 95 96 95 95 94 92 92 92
34 22 20 22 18 18 17 18 18 19 21 15 13 12 14 17 18 19 21 26 27 28 37 59 73 82 86 87 89 87 90 94 93 94 93 95 95 93 92 91 90 90 91 91
46 26 25 39 25 18 17 17 17 22 19 14 14 14 16 18 17 20 30 33 35 35 52 69 76 80 88 85 83 86 90 87 87 86 89 89 86 84 86 88 88 91 94 92
64 69 59 28 18 16 20 17 14 14 14 13 14 14 16 18 22 27 34 38 42 53 60 65 70 73 75 73 76 77 75 76 75 77 78 75 74 76 84 88 90 90 89 87
68 59 36 25 22 22 24 23 17 17 14 13 12 21 29 25 30 36 40 46 51 53 57 59 63 66 63 64 62 63 66 65 61 63 64 66 76 81 83 83 84 88 82 82
75 63 69 40 22 19 21 38 19 17 21 19 23 48 31 32 36 40 40 44 49 52 53 54 54 53 55 56 57 58 59 60 60 63 65 72 75 81 79 77 73 67 57 60
68 72 52 28 24 22 41 45 26 21 22 24 29 32 37 35 39 38 40 42 46 47 50 50 49 51 54 55 58 57 58 57 59 64 68 71 72 70 66 59 65 75 72 75
75 76 72 30 26 33 35 37 28 27 28 37 45 41 38 39 41 39 39 42 43 48 49 48 47 50 53 57 54 55 58 59 58 56 48 47 55 54 49 64 73 76 72 76
51 57 42 42 38 38 36 39 38 36 30 32 44 41 40 42 40 39 39 43 41 45 49 50 48 49 55 56 53 54 54 51 47 43 42 43 52 51 52 55 66 80 81 87
82 37 32 37 37 36 34 38 29 28 30 32 42 40 41 41 40 41 39 40 40 47 51 53 50 48 52 50 48 50 50 49 46 45 40 36 31 36 58 76 83 82 83 83
61 46 44 35 35 40 38 38 32 30 33 32 41 40 40 40 41 40 39 40 43 49 53 51 46 48 45 46 46 45 45 40 41 43 42 39 47 53 78 73 81 86 85 82
58 37 50 45 46 43 42 38 34 35 36 33 38 39 38 40 40 40 41 43 46 49 49 45 46 46 44 42 40 41 40 46 70 69 63 42 49 53 71 72 75 72 68 81
30 33 36 38 39 42 43 41 37 40 37 35 36 36 37 40 42 50 42 47 48 50 49 49 48 46 39 41 42 47 54 57 64 68 67 67 68 73 85 74 70 70 66 62
27 31 38 35 44 44 44 40 43 36 37 45 39 38 44 44 45 43 46 46 48 48 48 44 40 42 41 42 51 58 56 70 62 65 67 73 71 74 77 83 89 90 71 65
30 31 37 43 40 41 42 41 45 44 43 45 44 47 45 45 46 49 51 48 47 47 43 37 38 38 40 55 46 53 56 61 72 78 79 76 76 78 78 78 81 82 78 74
45 37 43 44 45 44 44 47 50 53 50 49 50 51 48 48 54 54 53 54 54 56 56 71 56 53 55 46 48 52 58 71 74 68 77 75 75 76 73 77 78 83 84 86
59 60 57 56 53 51 50 52 49 52 56 57 66 62 63 73 74 76 74 71 73 73 70 68 56 48 56 55 57 63 84 77 82 60 67 71 77 77 76 82 84 85 88 94
53 53 55 55 57 62 72 79 80 79 81 82 84 86 89 89 90 90 89 88 91 95 93 90 87 90 89 87 83 78 72 64 66 75 68 83 80 74 81 81 79 83 88 84
73 75 75 72 75 79 82 86 87 86 87 88 90 94 93 94 94 96 96 95 95 95 96 95 93 88 84 80 72 77 81 81 71 67 74 77 88 83 87 89 87 88 86 87
91 90 90 91 87 89 94 94 95 96 96 94 95 95 95 96 96 96 96 96 94 92 92 89 80 74 62 62 67 66 80 82 71 79 88 83 89 93 90 83 88 90 92 92
97 97 97 96 97 97 96 93 91 94 96 95 93 95 95 96 96 96 95 92 94 93 85 74 63 57 56 56 54 82 84 86 86 86 88 90 92 89 90 90 92 91 91 92
96 96 97 96 94 96 96 93 90 93 94 95 95 95 94 95 96 95 96 90 89 89 73 75 69 78 64 84 67 85 79 79 84 87 89 90 90 91 91 90 91 91 92 90
95 95 94 94 93 93 93 93 95 92 94 95 95 96 95 93 90 90 91 84 73 76 82 84 84 82 83 92 88 88 88 85 87 90 90 91 92 93 89 90 91 90 90 93
94 93 94 91 81 79 89 91 87 89 94 94 96 97 92 92 87 79 77 80 85 90 90 91 88 83 86 92 93 93 89 90 89 92 93 87 92 94 93 91 92 92 91 92
94 95 94 92 88 91 90 88 86 84 80 75 74 72 77 83 92 90 88 86 82 92 89 85 84 82 90 93 93 91 89 90 92 90 90 93 93 92 90 91 94 92 93 91
92 91 91 93 93 90 86 81 88 90 81 88 90 92 92 90 90 86 84 85 84 82 85 93 90 90 89 86 86 86 90 90 90 92 93 89 88 88 90 92 91 91 92 92
92 90 84 84 81 80 81 80 85 88 92 92 93 89 89 93 90 87 92 87 87 90 88 86 89 88 92 89 88 88 86 88 91 93 89 91 90 90 91 92 92 91 89 89
Wind_Speed
17 19 21 21 19 19 19 13 16 12 15 15 12 7 6 4 8 5 3 3 3 4 9 10 13 13 11 11 10 11 11 11 11 9 11 9 9 9 9 8 8 10 10 8
16 19 19 14 19 22 20 19 16 18 17 14 11 8 8 6 8 4 5 3 2 2 12 15 13 12 10 9 10 10 12 11 11 11 10 10 9 10 11 9 9 9 9 9
15 17 18 17 17 14 14 15 15 15 11 11 12 10 7 6 7 6 9 4 3 3 14 15 13 12 12 10 10 10 12 11 11 10 12 10 10 10 10 9 9 8 7 7
6 2 23 10 13 14 15 16 15 14 12 11 12 11 3 4 7 8 9 7 4 5 9 14 14 14 13 11 11 11 12 13 12 12 13 11 11 10 10 8 8 7 6 6
7 12 12 19 12 13 14 16 16 17 16 13 15 4 5 6 3 11 10 8 7 8 10 12 14 15 14 14 13 13 13 13 12 12 12 11 10 9 8 8 6 5 5 6
4 12 14 9 12 6 9 12 14 13 10 10 8 4 1 9 9 12 11 11 11 11 11 12 12 12 12 12 12 11 12 11 11 10 10 10 9 8 7 6 7 5 4 6
8 6 6 7 12 10 16 8 11 11 10 7 3 4 11 12 12 12 12 12 13 12 11 12 12 12 13 13 13 12 13 12 10 9 9 8 8 7 6 5 7 6 5 6
5 6 14 3 6 19 8 6 6 9 5 2 12 11 13 13 14 14 15 15 14 12 11 12 12 12 12 12 12 12 11 11 10 9 7 7 6 5 4 6 6 6 5 3
8 7 6 7 6 4 6 5 5 7 5 2 13 11 14 13 14 15 15 14 13 12 13 12 12 11 14 12 12 11 11 10 9 7 6 6 6 5 5 6 5 4 3 2
12 12 6 5 6 5 5 5 7 8 3 4 12 13 14 13 13 13 14 14 12 13 13 12 11 12 12 12 12 10 10 9 8 7 6 5 5 4 6 5 3 3 3 2
14 21 7 13 9 3 5 7 5 5 4 9 12 13 13 13 14 13 13 12 12 12 11 12 11 12 11 10 10 10 9 8 7 4 6 7 8 5 6 5 4 2 4 4
3 5 3 2 7 8 6 8 12 7 5 7 9 10 12 12 13 13 13 12 11 12 11 11 11 10 9 9 9 9 8 7 5 4 5 4 7 6 10 10 11 10 8 4
8 5 6 3 3 2 4 9 10 5 4 5 5 8 10 9 10 10 12 12 11 11 11 11 10 9 7 7 8 11 10 7 4 4 4 4 3 2 6 3 7 8 8 6
7 6 6 4 2 5 4 8 7 7 3 4 2 7 8 8 7 9 11 10 12 13 12 10 11 10 9 11 12 11 9 6 5 4 4 3 4 3 2 2 1 4 8 7
13 10 4 4 1 3 2 4 5 5 1 1 6 8 10 10 10 10 13 15 15 14 12 12 11 10 9 7 9 8 8 6 6 6 5 3 2 2 2 2 1 1 2 3
12 7 9 5 6 4 4 3 5 4 5 6 7 8 11 14 18 17 15 12 12 12 15 13 11 7 5 9 10 9 8 9 6 4 2 2 2 2 2 2 2 2 2 2
7 8 9 7 4 5 5 3 2 6 5 10 12 20 22 22 21 20 18 17 17 16 15 13 10 9 10 10 9 7 6 5 2 2 3 3 3 2 2 2 2 2 2 4
8 6 6 5 4 9 14 17 18 19 18 19 21 22 21 20 18 16 15 15 15 14 11 9 9 11 11 10 8 5 4 3 3 3 2 3 3 3 2 3 3 3 2 3
17 17 17 17 16 17 16 16 16 17 16 18 21 20 18 16 15 13 12 13 11 11 7 7 10 9 8 7 6 4 3 3 2 2 2 2 3 2 2 3 3 3 3 4
16 15 16 17 17 17 17 14 17 17 14 18 18 17 16 14 12 11 11 12 9 7 8 8 7 7 7 6 5 4 3 3 2 2 1 1 4 3 3 4 3 3 3 4
14 15 16 16 16 16 16 15 16 17 15 16 18 16 15 13 11 10 10 8 9 8 7 6 5 4 5 3 2 2 2 2 3 3 3 3 3 3 3 4 4 4 4 4
13 14 15 16 16 18 17 16 17 17 17 17 16 14 14 12 11 11 9 8 6 6 5 6 5 7 5 6 4 4 4 4 3 3 3 4 4 4 4 4 4 4 4 4
14 16 16 17 18 18 18 17 16 16 16 14 13 12 10 7 5 6 7 5 5 5 8 6 6 7 7 5 3 4 4 4 5 4 4 3 3 3 4 4 4 4 5 4
15 16 16 15 16 17 18 15 16 16 14 13 11 8 6 7 7 7 7 9 9 9 7 6 6 6 6 4 4 4 5 5 5 5 5 7 5 5 4 4 4 3 4 4
15 14 14 14 14 11 14 13 12 12 12 13 12 12 12 10 7 6 6 6 8 6 7 5 5 4 4 5 5 5 5 5 4 4 4 4 5 6 6 5 4 4 3 3
15 12 12 15 12 9 9 9 9 8 8 8 8 7 7 6 6 6 5 6 6 6 5 5 4 3 4 6 6 7 6 6 6 6 6 6 6 6 6 6 5 5 5 5
12 13 11 11 11 11 10 10 9 9 8 7 8 8 7 6 6 7 8 6 6 6 6 6 5 6 5 4 5 6 6 6 6 5 5 6 6 6 7 6 6 6 6 6
Wind_Direction
237 246 196 218 215 237 247 226 215 227 251 251 264 191 279 68 66 106 178 158 184 186 141 137 86 76 74 70 72 79 84 92 90 92 86 94 98 104 107 105 112 119 120 120
243 246 263 234 228 209 224 243 247 243 237 251 271 253 228 164 144 203 177 121 284 266 131 111 107 98 87 86 86 91 90 89 89 93 101 100 99 100 102 110 114 119 124 131
239 243 260 248 242 246 233 233 237 242 249 262 269 272 252 189 183 174 125 150 215 226 99 108 120 118 112 109 104 101 106 114 117 120 115 119 119 117 119 127 131 122 117 119
223 188 243 266 253 249 262 268 268 260 261 257 261 263 195 110 127 145 132 147 146 89 105 110 121 118 125 135 135 137 135 132 131 129 126 133 136 129 121 120 122 127 145 174
205 233 258 233 233 234 237 242 244 245 257 254 235 139 93 105 92 124 133 136 131 130 127 131 134 147 148 149 147 139 135 134 131 131 137 123 114 125 130 131 142 158 179 197
173 219 231 239 228 211 255 260 256 260 276 263 125 164 266 138 120 125 142 148 144 138 138 137 133 132 135 133 134 129 128 120 127 123 122 124 134 138 152 163 180 181 126 78
229 236 247 223 224 244 244 242 245 262 248 244 202 124 123 133 135 144 147 150 147 152 146 142 143 144 145 140 135 131 127 130 127 118 129 147 161 165 163 103 88 86 80 52
220 242 245 343 226 217 226 226 271 286 263 288 110 121 135 145 154 159 161 157 160 155 148 146 151 152 139 132 130 127 130 127 144 146 134 120 112 105 113 104 98 98 93 79
198 202 186 201 234 284 333 344 298 326 329 144 137 146 154 162 168 167 165 163 165 155 148 150 152 145 138 139 139 130 138 133 121 128 119 120 109 96 91 87 87 88 87 83
344 245 208 211 237 261 271 281 328 310 358 289 151 156 165 168 171 170 167 175 162 156 157 154 147 146 137 135 139 137 130 129 128 113 107 100 97 66 77 60 61 81 80 57
198 245 318 291 290 328 321 299 259 290 323 295 155 169 172 173 170 175 176 165 160 160 154 145 130 123 130 132 137 135 128 122 106 107 114 90 67 55 96 65 66 22 58 56
230 230 266 286 26 24 348 328 276 193 224 271 159 175 179 179 174 174 168 159 154 148 138 126 120 121 126 137 128 118 115 94 79 76 52 85 126 109 67 127 125 113 108 102
270 248 254 348 340 268 328 312 333 141 236 275 175 162 174 170 171 164 151 144 141 132 123 116 110 109 85 82 102 105 101 93 87 77 75 72 48 90 146 127 152 154 158 154
276 258 262 289 5 83 27 334 7 337 353 299 198 131 136 137 140 140 131 132 118 106 103 105 98 85 74 68 71 80 86 80 86 74 75 54 49 35 33 46 120 173 198 203
282 286 278 234 327 328 41 342 332 295 323 327 92 118 125 134 126 114 91 94 99 103 108 105 102 88 81 93 97 92 76 66 73 75 54 58 56 24 16 19 330 9 356 202
331 351 17 339 77 314 54 7 309 48 46 74 88 95 103 96 85 80 83 89 106 87 77 76 74 55 65 90 88 76 70 53 55 66 101 60 43 17 346 6 337 352 360 15
5 22 19 23 18 55 58 35 64 93 83 70 68 78 80 84 79 75 75 79 78 73 69 68 65 45 41 45 63 81 97 50 44 57 40 43 31 347 2 341 327 331 332 110
8 30 32 23 353 89 64 58 63 70 75 80 80 82 82 82 88 87 88 89 82 76 76 73 46 49 45 47 58 66 57 65 52 50 6 42 31 329 334 327 309 319 336 338
43 53 52 64 76 84 82 80 79 83 86 89 89 86 88 91 97 98 96 91 91 92 83 84 80 73 66 48 72 62 60 41 43 58 13 38 263 269 344 316 338 333 325 319
63 65 68 72 73 84 89 84 87 84 86 90 93 92 92 92 94 90 83 80 82 95 101 92 85 83 75 56 25 65 47 38 10 348 343 9 294 358 327 302 303 318 332 327
68 72 74 76 77 77 81 86 89 86 86 87 93 92 90 90 89 91 91 93 94 96 104 108 78 78 65 32 340 50 41 12 9 336 334 324 322 310 326 332 335 339 330 334
75 78 79 80 77 76 74 79 81 84 83 83 83 84 85 78 79 80 78 102 123 150 125 94 74 43 40 342 24 9 6 351 355 325 322 334 339 337 332 332 331 332 338 330
75 76 76 74 77 78 75 72 76 81 83 81 82 82 80 82 110 107 106 128 115 81 84 78 70 41 11 321 13 351 357 352 333 336 333 326 330 339 317 311 324 324 312 322
75 73 75 78 79 77 77 75 76 73 73 73 67 70 92 94 78 75 83 75 62 71 76 75 62 29 342 327 4 10 2 353 338 338 0 357 340 333 339 328 318 322 326 338
77 79 77 78 80 82 88 91 92 86 83 77 68 60 57 49 67 75 81 73 40 39 96 97 82 356 345 360 4 9 350 339 355 336 319 336 344 340 325 317 323 331 334 307
63 62 59 57 61 64 66 63 62 65 82 75 70 68 68 64 73 77 80 74 55 47 38 54 35 15 18 23 2 349 343 350 350 357 1 357 343 324 319 331 338 339 342 343
59 60 63 62 56 53 53 57 61 50 38 66 73 59 54 66 62 58 54 46 38 39 33 21 20 19 21 6 347 359 353 348 360 2 346 349 343 337 337 342 344 346 336 322